Tracking 25963 objects as of 12-Aug-2022
HD Live streaming from Space Station
objects crossing your sky now

SL-12 R/B(2)

Track SL-12 R/B(2) now!


NORAD ID: 26992
Int'l Code: 2001-053F
Perigee: 19,057.5 km
Apogee: 19,137.9 km
Inclination: 63.3 °
Period: 674.2 minutes
Semi major axis: 25468 km
RCS: 0.003 m2 (small)
Launch date: December 1, 2001
Source: Commonwealth of Independent States (former USSR) (CIS)
Launch site: TYURATAM MISSILE AND SPACE COMPLEX (TTMTR)

Note: This is a ROCKET BODY
aabbcc
Your satellite tracking list
Your tracking list is empty




NASA's NSSDC Master Catalog

Two Line Element Set (TLE):
1 26992U 01053F   22222.20346322 -.00000003  00000-0  00000-0 0  9993
2 26992  63.2862 106.3272 0015778 268.3370 210.4892  2.13595875161442
Source of the keplerian elements: AFSPC